Flag for United Kingdom Weather past 2 weeks in Sheffield, England, United Kingdom

Now
43 °F

Partly sunny.


Feels Like: 35 °F
Forecast: N/A
Wind: 15 mph from Northwest

Location: Manchester Airport

Current Time: Jan 26, 2015 at 4:48:30 PM

Latest Report: Jan 26, 2015 at 3:50 PM


Visibility: N/A

Pressure: 30.24 "Hg

Humidity: 81%

Dew point: 37 °F

Location of SheffieldLocation

Historic Weather in Sheffield — Graph

°F

Sheffield temperature yesterday

Maximum temperature yesterday: 48 °F (at 1:20 PM)
Minimum temperature yesterday: 36 °F (at 2:50 AM)
Average temperature yesterday: 43 °F

Past Weeks' High & Low Weather Summary

 TemperatureHumidityPressure
High50 °F (Jan 12, 8:20 AM)100% (Jan 17, 10:50 PM)30.42 "Hg (Jan 17, 10:50 PM)
Low23 °F (Jan 19, 4:50 AM)65% (Jan 20, 11:50 AM)28.82 "Hg (Jan 15, 12:50 AM)
Average38 °F85%29.80 "Hg
* Reported Jan 11 3:20 PM — Jan 26 3:50 PM, Sheffield, Weather by CustomWeather, © 2014

Note: Actual official high and low records may vary slightly from our data, if they occured in-between our weather recording intervals... More about our weather records

Advertising

Sheffield weather history for previous 24 hours

 ConditionsComfort  
Time TempWeatherWind HumidityBarometerVisibility
3:50 PM
Jan 26
43 °FPartly sunny.15 mph81%30.24 "HgN/A
3:20 PM45 °FBroken clouds.15 mph76%30.24 "HgN/A
2:50 PM45 °FPartly sunny.16 mph76%30.24 "HgN/A
2:20 PM45 °FBroken clouds.17 mph76%30.21 "HgN/A
1:50 PM45 °FBroken clouds.16 mph76%30.21 "HgN/A
1:20 PM45 °FCloudy.18 mph76%30.21 "HgN/A
12:50 PM45 °FPartly sunny.16 mph76%30.21 "HgN/A
12:20 PM45 °FPartly sunny.15 mph76%30.21 "HgN/A
11:50 AM45 °FScattered clouds.16 mph76%30.21 "HgN/A
11:20 AM45 °FScattered clouds.13 mph76%30.21 "HgN/A
10:50 AM45 °FScattered clouds.14 mph76%30.21 "HgN/A
10:20 AM43 °FScattered clouds.13 mph81%30.18 "HgN/A
9:50 AM43 °FPassing clouds.9 mph81%30.18 "HgN/A
9:20 AM43 °FScattered clouds.9 mph76%30.18 "HgN/A
8:50 AM43 °FScattered clouds.12 mph81%30.18 "HgN/A
8:20 AM45 °FScattered clouds.14 mph76%30.18 "HgN/A
7:50 AM45 °FPartly cloudy.10 mph81%30.15 "HgN/A
7:20 AM45 °FPassing clouds.10 mph87%30.15 "HgN/A
6:50 AM45 °FPassing clouds.10 mph93%30.12 "HgN/A
6:20 AM45 °FPassing clouds.9 mph93%30.12 "HgN/A
5:50 AM46 °FPassing clouds.12 mph93%30.12 "HgN/A
5:20 AM46 °FPassing clouds.12 mph93%30.09 "HgN/A
4:50 AM46 °FMostly cloudy.13 mph93%30.09 "HgN/A
4:20 AM48 °FDrizzle. Mostly cloudy.14 mph94%30.09 "Hg3 mi
3:50 AM48 °FLight rain. Mostly cloudy.13 mph94%30.09 "HgN/A
3:20 AM46 °FRain. Mostly cloudy.10 mph100%30.09 "Hg4 mi
2:50 AM46 °FLight rain. Passing clouds.9 mph100%30.09 "HgN/A
2:20 AM46 °FLight rain. Passing clouds.9 mph100%30.09 "Hg6 mi
1:50 AM46 °FPartly cloudy.9 mph100%30.09 "Hg4 mi
1:20 AM48 °FLight rain. Overcast.12 mph94%30.12 "Hg3 mi
12:50 AM48 °FPartly cloudy.10 mph94%30.12 "Hg4 mi
12:20 AM48 °FMostly cloudy.10 mph87%30.12 "HgN/A
11:50 PM
Jan 25
48 °FPartly cloudy.12 mph87%30.12 "HgN/A
11:20 PM48 °FPassing clouds.12 mph87%30.15 "HgN/A
10:50 PM48 °FPassing clouds.10 mph87%30.15 "HgN/A
10:20 PM48 °FPassing clouds.12 mph87%30.18 "HgN/A
9:50 PM46 °FPartly cloudy.9 mph93%30.18 "HgN/A
9:20 PM46 °FPassing clouds.8 mph93%30.18 "HgN/A
8:50 PM46 °FPassing clouds.8 mph93%30.18 "HgN/A
8:20 PM46 °FPassing clouds.9 mph93%30.18 "HgN/A
7:50 PM46 °FPassing clouds.10 mph93%30.21 "HgN/A
7:20 PM46 °FPassing clouds.9 mph93%30.21 "HgN/A
6:50 PM46 °FPassing clouds.8 mph93%30.21 "HgN/A
6:20 PM48 °FPassing clouds.9 mph87%30.21 "HgN/A
5:50 PM48 °FPassing clouds.10 mph87%30.21 "HgN/A
5:20 PM48 °FPassing clouds.13 mph87%30.21 "HgN/A
4:50 PM48 °FPartly cloudy.13 mph87%30.21 "HgN/A
4:20 PM46 °FScattered showers. Partly sunny.12 mph93%30.24 "HgN/A
Weather by CustomWeather, © 2014

See weather overviewHow to use our weather pages